Location: Brachbach
(49.1847°N, 9.7240°E)
Time: 17:42:30
(UTC+00:00)

STRAND 1 - Visible Passes

Search period start: 07 March 2026 00:00
Search period end: 17 March 2026 00:00
Orbit: 762 x 774 km, 98.4° (Epoch: 7 March)

Date Brightness Start Highest point End Pass type
(mag) Time Alt. Az. Time Alt. Az. Time Alt. Az.
7 Mar ? 03:13:58 10° ESE 03:18:24 31° ENE 03:22:51 10° N visible
7 Mar ? 04:52:28 10° S 04:57:19 43° W 05:02:12 10° NNW visible
7 Mar ? 18:36:46 10° N 18:41:03 28° WNW 18:45:19 10° WSW visible
8 Mar ? 02:39:37 10° E 02:42:53 17° NE 02:46:08 10° NNE visible
8 Mar ? 04:16:10 10° SSE 04:21:17 85° WSW 04:26:27 10° NNW visible
8 Mar ? 18:00:26 10° N 18:05:23 53° WNW 18:10:17 10° SW visible
9 Mar ? 03:40:32 10° SE 03:45:26 50° ENE 03:50:22 10° N visible
9 Mar ? 19:04:36 10° NNW 19:07:58 18° WNW 19:11:19 10° W visible
10 Mar ? 03:05:33 10° ESE 03:09:46 27° ENE 03:14:00 10° N visible
10 Mar ? 04:43:36 10° S 04:48:34 51° W 04:53:33 10° NNW visible
10 Mar ? 18:27:55 10° N 18:32:25 32° WNW 18:36:53 10° SW visible
11 Mar ? 02:31:27 10° E 02:34:17 15° NE 02:37:07 10° NNE visible
11 Mar ? 04:07:28 10° SSE 04:12:35 82° ENE 04:17:42 10° NNW visible
11 Mar ? 17:51:40 10° N 17:56:41 62° WNW 18:01:40 10° SSW visible
11 Mar ? 19:33:07 10° NNW 19:34:46 12° NW 19:36:24 10° WNW visible
12 Mar ? 03:31:59 10° SE 03:36:47 42° ENE 03:41:34 10° N visible
12 Mar ? 18:55:38 10° NNW 18:59:21 21° WNW 19:03:02 10° WSW visible
13 Mar ? 02:57:11 10° ESE 03:01:08 23° ENE 03:05:06 10° N visible
13 Mar ? 04:34:46 10° S 04:39:49 60° WSW 04:44:53 10° NNW visible
13 Mar ? 18:19:06 10° N 18:23:45 37° WNW 18:28:23 10° SW visible
14 Mar ? 02:23:25 10° E 02:25:42 13° NE 02:27:58 10° NNE visible
14 Mar ? 03:58:48 10° SSE 04:03:52 70° ENE 04:08:57 10° N visible
14 Mar ? 19:23:49 10° NNW 19:26:10 13° NW 19:28:32 10° W visible
15 Mar ? 03:23:28 10° SE 03:28:06 36° ENE 03:32:45 10° N visible
15 Mar ? 18:46:43 10° N 18:50:43 24° WNW 18:54:41 10° WSW visible
16 Mar ? 02:48:51 10° ESE 02:52:31 20° ENE 02:56:10 10° NNE visible
16 Mar ? 04:25:59 10° S 04:31:04 71° WSW 04:36:11 10° NNW visible
16 Mar ? 18:10:16 10° N 18:15:05 44° WNW 18:19:50 10° SW visible
